This is the latest recevied weather packets stored in our database for station/object KC9VAF. If no packets are shown the sender has not sent any weather packets the latest 10 day(s).
| Time | Temp. | Humidity | Pressure | Rain* | Wind** | Luminosity | Snow |
|---|---|---|---|---|---|---|---|
| 1778286686 | 13.89° C | 56% | 1005.8 hPa | 0 mm | - | 19 W/m² | - |
| 1778286383 | 13.89° C | 56% | 1005.9 hPa | 0 mm | - | 24 W/m² | - |
| 1778286080 | 14.44° C | 56% | 1005.9 hPa | 0 mm | - | 29 W/m² | - |
| 1778285778 | 14.44° C | 56% | 1006.1 hPa | 0 mm | - | 31 W/m² | - |
| 1778285473 | 14.44° C | 54% | 1006 hPa | 0 mm | - | 40 W/m² | - |
| 1778285172 | 15° C | 53% | 1006.2 hPa | 0 mm | - | 50 W/m² | - |
| 1778284868 | 15° C | 52% | 1006.1 hPa | 0 mm | - | 42 W/m² | - |
| 1778284566 | 15° C | 52% | 1006.1 hPa | 0 mm | - | 43 W/m² | - |
| 1778284262 | 15.56° C | 51% | 1006.1 hPa | 0 mm | - | 71 W/m² | - |
| 1778283960 | 15.56° C | 50% | 1006.2 hPa | 0 mm | - | 84 W/m² | - |
| 1778283656 | 15.56° C | 48% | 1006.3 hPa | 0 mm | - | 98 W/m² | - |
| 1778283355 | 15.56° C | 46% | 1006.3 hPa | 0 mm | - | 99 W/m² | - |
| 1778283053 | 15.56° C | 43% | 1006.2 hPa | 0 mm | - | 75 W/m² | - |
| 1778282749 | 15.56° C | 39% | 1006.3 hPa | 0 mm | - | 128 W/m² | - |
| 1778282446 | 15.56° C | 39% | 1006.3 hPa | 0 mm | - | 146 W/m² | - |
| 1778282144 | 15.56° C | 40% | 1006.4 hPa | 0 mm | - | 67 W/m² | - |
| 1778281841 | 15° C | 39% | 1006.6 hPa | 0 mm | - | 128 W/m² | - |
| 1778281537 | 15.56° C | 39% | 1006.5 hPa | 0 mm | - | 55 W/m² | - |
| 1778281234 | 15.56° C | 39% | 1006.6 hPa | 0 mm | - | 55 W/m² | - |
| 1778280932 | 16.11° C | 38% | 1006.8 hPa | 0 mm | - | 60 W/m² | - |
| 1778280628 | 16.67° C | 39% | 1006.5 hPa | 0 mm | - | 212 W/m² | - |
| 1778280326 | 16.11° C | 38% | 1006.5 hPa | 0 mm | - | 230 W/m² | - |
| 1778280023 | 16.67° C | 38% | 1006.7 hPa | 0 mm | - | 271 W/m² | - |
| 1778279721 | 16.11° C | 39% | 1006.6 hPa | 0 mm | - | 288 W/m² | - |
| 1778279418 | 15.56° C | 39% | 1006.6 hPa | 0 mm | - | 77 W/m² | - |
* Rain latest hour (hover to see other rain measurements)
** Current wind speed in m/s (hover to see current wind gust speed)